UAL428 KBOS-LEBL

Flight info

Callsign UAL428
Flight time 4h 17m
Altitude 33000
Route CELTK7 CELTK DCT FRILL DCT WHALE/M083F330 N23A CARAC DCT JEBBY DCT 44N050W/M083F350 45N040W 45N030W 4430N02000W/M083F370 DCT MUDOS/N0478F370 DCT STG DCT SUSOS DCT NUBLO DCT NEDUS DCT RATAS DCT DGO DCT VASUM DCT YAKXU DCT ELSAP DCT VAKIN DCT DIRMU DCT LOBAR
Aircraft B763/H-SDE3FGHIM3RWXY/LB1

Departure

Time 2026-05-06 16:34
Airport Boston Logan International Airport (KBOS)

Arrival

Time 2026-05-06 20:51
Airport Josep Tarradellas Barcelona-El Prat Airport (LEBL)
Time Latitude Longitude Altitude Speed Heading
2026-05-06 16:12 42.35982 -71.01692 33 ft 0 kts 316°
2026-05-06 16:22 42.35979 -71.01688 33 ft 2 kts 316°
2026-05-06 16:22 42.35965 -71.01672 31 ft 3 kts 321°
2026-05-06 16:22 42.35949 -71.01656 33 ft 3 kts 330°
2026-05-06 16:23 42.35931 -71.01645 32 ft 3 kts 343°
2026-05-06 16:23 42.35913 -71.01641 32 ft 3 kts
2026-05-06 16:23 42.35900 -71.01644 32 ft 1 kts 20°
2026-05-06 16:23 42.35899 -71.01645 32 ft 0 kts 20°
2026-05-06 16:24 42.35898 -71.01645 32 ft 0 kts 20°
2026-05-06 16:28 42.35921 -71.01634 32 ft 6 kts 20°
2026-05-06 16:28 42.35980 -71.01605 33 ft 12 kts 20°
2026-05-06 16:28 42.36074 -71.01558 32 ft 17 kts 20°
2026-05-06 16:28 42.36204 -71.01493 33 ft 23 kts 19°
2026-05-06 16:29 42.36376 -71.01412 33 ft 28 kts 19°
2026-05-06 16:29 42.36538 -71.01323 33 ft 23 kts 24°
2026-05-06 16:29 42.36683 -71.01252 33 ft 22 kts 14°
2026-05-06 16:29 42.36795 -71.01272 33 ft 11 kts 335°
2026-05-06 16:30 42.36830 -71.01273 33 ft 6 kts 16°
2026-05-06 16:30 42.36848 -71.01262 33 ft 10 kts 27°
2026-05-06 16:30 42.36915 -71.01189 33 ft 8 kts 40°
2026-05-06 16:30 42.36949 -71.01151 33 ft 15 kts 39°
2026-05-06 16:31 42.37077 -71.01052 33 ft 23 kts 26°
2026-05-06 16:31 42.37219 -71.00959 33 ft 23 kts 25°
2026-05-06 16:31 42.37361 -71.00879 33 ft 22 kts 19°
2026-05-06 16:31 42.37551 -71.00787 33 ft 22 kts 20°
2026-05-06 16:32 42.37649 -71.00739 33 ft 22 kts 20°
2026-05-06 16:32 42.37794 -71.00669 33 ft 22 kts 22°
2026-05-06 16:32 42.37831 -71.00571 33 ft 9 kts 101°
2026-05-06 16:32 42.37814 -71.00498 33 ft 7 kts 109°
2026-05-06 16:33 42.37803 -71.00482 33 ft 2 kts 157°
2026-05-06 16:33 42.37760 -71.00487 33 ft 8 kts 197°
2026-05-06 16:33 42.37736 -71.00499 33 ft 0 kts 201°
2026-05-06 16:34 42.37676 -71.00529 33 ft 40 kts 200°
2026-05-06 16:34 42.37113 -71.00801 33 ft 130 kts 199°
2026-05-06 16:34 42.36012 -71.01334 194 ft 197 kts 198°
2026-05-06 16:34 42.34615 -71.01921 907 ft 217 kts 195°
2026-05-06 16:35 42.33139 -71.02403 1163 ft 221 kts 188°
2026-05-06 16:35 42.31612 -71.01953 1578 ft 234 kts 151°
2026-05-06 16:35 42.30277 -70.99529 2416 ft 263 kts 112°
2026-05-06 16:35 42.30111 -70.97869 2748 ft 278 kts 92°
2026-05-06 16:36 42.30482 -70.95259 3289 ft 289 kts 77°
2026-05-06 16:36 42.31074 -70.92654 3886 ft 290 kts 75°
2026-05-06 16:36 42.31708 -70.90051 4471 ft 293 kts 75°
2026-05-06 16:36 42.32330 -70.87418 5184 ft 295 kts 79°
2026-05-06 16:37 42.32742 -70.84694 6063 ft 297 kts 87°
2026-05-06 16:37 42.32928 -70.81914 6825 ft 298 kts 94°
2026-05-06 16:37 42.32947 -70.79144 7575 ft 299 kts 98°
2026-05-06 16:37 42.32865 -70.76319 8307 ft 301 kts 103°
2026-05-06 16:38 42.32545 -70.73530 9030 ft 300 kts 109°
2026-05-06 16:38 42.32152 -70.70741 9763 ft 304 kts 109°
2026-05-06 16:38 42.31763 -70.67901 10310 ft 313 kts 109°
2026-05-06 16:38 42.31335 -70.64904 10498 ft 337 kts 105°
2026-05-06 16:39 42.31051 -70.61658 10763 ft 358 kts 101°
2026-05-06 16:39 42.30800 -70.58236 11041 ft 373 kts 102°
2026-05-06 16:39 42.30500 -70.54679 11314 ft 387 kts 102°
2026-05-06 16:39 42.30183 -70.51053 11628 ft 398 kts 101°
2026-05-06 16:40 42.29866 -70.47309 12174 ft 401 kts 101°
2026-05-06 16:40 42.29545 -70.43552 12712 ft 404 kts 101°
2026-05-06 16:40 42.29218 -70.39763 13272 ft 406 kts 101°
2026-05-06 16:40 42.28888 -70.35954 13782 ft 409 kts 100°
2026-05-06 16:41 42.28557 -70.32130 14237 ft 411 kts 100°
2026-05-06 16:41 42.28228 -70.28344 14671 ft 413 kts 101°
2026-05-06 16:41 42.27887 -70.24465 15104 ft 415 kts 101°
2026-05-06 16:41 42.27547 -70.20587 15511 ft 417 kts 101°
2026-05-06 16:42 42.27202 -70.16682 15930 ft 419 kts 101°
2026-05-06 16:42 42.26892 -70.12732 16342 ft 422 kts 99°
2026-05-06 16:42 42.26479 -70.08817 16744 ft 421 kts 105°
2026-05-06 16:42 42.25935 -70.04916 17141 ft 423 kts 104°
2026-05-06 16:43 42.25420 -70.00981 17523 ft 426 kts 104°
2026-05-06 16:43 42.24914 -69.97071 17896 ft 428 kts 104°
2026-05-06 16:43 42.24391 -69.93102 18252 ft 430 kts 104°
2026-05-06 16:43 42.23866 -69.89127 18561 ft 431 kts 104°
2026-05-06 16:44 42.23411 -69.85115 18867 ft 434 kts 101°
2026-05-06 16:44 42.23076 -69.81047 19165 ft 436 kts 99°
2026-05-06 16:44 42.22962 -69.76930 19463 ft 441 kts 93°
2026-05-06 16:44 42.22993 -69.72855 19740 ft 442 kts 93°
2026-05-06 16:45 42.22993 -69.68682 20015 ft 443 kts 94°
2026-05-06 16:45 42.22986 -69.64505 20276 ft 445 kts 93°
2026-05-06 16:45 42.22984 -69.60329 20570 ft 446 kts 93°
2026-05-06 16:45 42.22981 -69.56128 20863 ft 447 kts 93°
2026-05-06 16:46 42.22974 -69.51915 21154 ft 449 kts 94°
2026-05-06 16:46 42.22966 -69.47687 21435 ft 451 kts 93°
2026-05-06 16:46 42.22956 -69.43447 21728 ft 452 kts 93°
2026-05-06 16:46 42.22946 -69.39252 21989 ft 454 kts 93°
2026-05-06 16:47 42.22932 -69.34985 22241 ft 455 kts 93°
2026-05-06 16:47 42.22918 -69.30709 22481 ft 457 kts 93°
2026-05-06 16:47 42.22902 -69.26413 22725 ft 458 kts 93°
2026-05-06 16:47 42.22884 -69.22108 22976 ft 459 kts 93°
2026-05-06 16:48 42.22864 -69.17783 23217 ft 460 kts 93°
2026-05-06 16:48 42.22843 -69.13438 23431 ft 462 kts 93°
2026-05-06 16:48 42.22820 -69.09153 23646 ft 463 kts 93°
2026-05-06 16:48 42.22796 -69.04800 23840 ft 464 kts 93°
2026-05-06 16:49 42.22769 -69.00430 24015 ft 465 kts 93°
2026-05-06 16:49 42.22741 -68.96038 24174 ft 466 kts 93°
2026-05-06 16:49 42.22712 -68.91722 24343 ft 467 kts 93°
2026-05-06 16:49 42.22680 -68.87282 24502 ft 467 kts 93°
2026-05-06 16:50 42.22647 -68.82936 24655 ft 468 kts 93°
2026-05-06 16:50 42.22612 -68.78533 24798 ft 469 kts 93°
2026-05-06 16:50 42.22575 -68.74117 24959 ft 470 kts 93°
2026-05-06 16:50 42.22537 -68.69699 25109 ft 470 kts 93°
2026-05-06 16:51 42.22497 -68.65274 25256 ft 471 kts 93°
2026-05-06 16:51 42.22456 -68.60899 25421 ft 472 kts 93°
2026-05-06 16:51 42.22411 -68.56442 25598 ft 473 kts 93°
2026-05-06 16:51 42.22366 -68.51988 25765 ft 474 kts 93°
2026-05-06 16:52 42.22320 -68.47582 25904 ft 475 kts 93°
2026-05-06 16:52 42.22271 -68.43131 26064 ft 475 kts 93°
2026-05-06 16:52 42.22219 -68.38650 26206 ft 476 kts 93°
2026-05-06 16:52 42.22167 -68.34172 26352 ft 477 kts 93°
2026-05-06 16:53 42.22112 -68.29686 26510 ft 478 kts 93°
2026-05-06 16:53 42.22056 -68.25196 26623 ft 479 kts 93°
2026-05-06 16:53 42.21998 -68.20699 26772 ft 479 kts 93°
2026-05-06 16:53 42.21938 -68.16252 26896 ft 480 kts 93°
2026-05-06 16:54 42.21876 -68.11734 27037 ft 481 kts 93°
2026-05-06 16:54 42.21812 -68.07213 27159 ft 482 kts 93°
2026-05-06 16:54 42.21747 -68.02665 27283 ft 483 kts 93°
2026-05-06 16:54 42.21680 -67.98187 27382 ft 484 kts 93°
2026-05-06 16:55 42.21610 -67.93646 27514 ft 484 kts 93°
2026-05-06 16:55 42.21538 -67.89070 27589 ft 486 kts 93°
2026-05-06 16:55 42.21466 -67.84520 27750 ft 486 kts 93°
2026-05-06 16:55 42.21389 -67.79946 27833 ft 487 kts 93°
2026-05-06 16:56 42.21313 -67.75426 27932 ft 488 kts 93°
2026-05-06 16:56 42.21234 -67.70832 28050 ft 488 kts 93°
2026-05-06 16:56 42.21152 -67.66248 28173 ft 488 kts 93°
2026-05-06 16:57 42.20986 -67.57115 28362 ft 490 kts 93°
2026-05-06 16:57 42.20811 -67.47893 28585 ft 491 kts 93°
2026-05-06 16:58 42.20627 -67.38713 28766 ft 492 kts 93°
2026-05-06 16:58 42.20437 -67.29468 28954 ft 493 kts 93°
2026-05-06 16:59 42.20237 -67.20181 29126 ft 494 kts 93°
2026-05-06 16:59 42.20030 -67.10874 29272 ft 496 kts 93°
2026-05-06 17:00 42.19977 -67.01593 29401 ft 499 kts 88°
2026-05-06 17:00 42.20892 -66.92342 29566 ft 500 kts 79°
2026-05-06 17:00 42.21579 -66.87694 29678 ft 500 kts 80°
2026-05-06 17:01 42.22233 -66.83142 29729 ft 501 kts 79°
2026-05-06 17:01 42.23579 -66.73897 29913 ft 501 kts 80°
2026-05-06 17:02 42.24914 -66.64615 29987 ft 503 kts 79°
2026-05-06 17:02 42.26234 -66.55386 30128 ft 504 kts 80°
2026-05-06 17:03 42.27561 -66.46059 30234 ft 505 kts 80°
2026-05-06 17:03 42.28884 -66.36694 30408 ft 507 kts 80°
2026-05-06 17:03 42.29541 -66.32021 30520 ft 507 kts 80°
2026-05-06 17:04 42.30199 -66.27335 30628 ft 508 kts 80°
2026-05-06 17:04 42.31510 -66.17943 30824 ft 509 kts 79°
2026-05-06 17:05 42.32811 -66.08564 31034 ft 510 kts 79°
2026-05-06 17:05 42.34113 -65.99116 31186 ft 512 kts 79°
2026-05-06 17:06 42.35406 -65.89671 31364 ft 513 kts 79°
2026-05-06 17:06 42.36699 -65.80173 31731 ft 509 kts 79°
2026-05-06 17:06 42.37330 -65.75514 32343 ft 498 kts 79°
2026-05-06 17:07 42.37937 -65.71018 32736 ft 494 kts 79°
2026-05-06 17:07 42.38559 -65.66400 32983 ft 492 kts 79°
2026-05-06 17:07 42.39164 -65.61889 33127 ft 482 kts 79°
2026-05-06 17:08 42.40363 -65.52914 33235 ft 488 kts 79°
2026-05-06 17:08 42.41564 -65.43855 33258 ft 492 kts 79°
2026-05-06 17:09 42.42759 -65.34794 33263 ft 489 kts 79°
2026-05-06 17:09 42.43952 -65.25689 33261 ft 491 kts 79°
2026-05-06 17:10 42.45135 -65.16600 33271 ft 491 kts 79°
2026-05-06 17:10 42.46315 -65.07477 33267 ft 490 kts 79°
2026-05-06 17:11 42.47486 -64.98363 33270 ft 491 kts 79°
2026-05-06 17:11 42.48645 -64.89288 33275 ft 491 kts 79°
2026-05-06 17:12 42.49802 -64.80159 33280 ft 491 kts 79°
2026-05-06 17:12 42.50953 -64.71027 33281 ft 492 kts 79°
2026-05-06 17:13 42.52099 -64.61868 33280 ft 492 kts 79°
2026-05-06 17:13 42.53235 -64.52723 33279 ft 491 kts 79°
2026-05-06 17:14 42.54360 -64.43621 33285 ft 492 kts 79°
2026-05-06 17:14 42.55485 -64.34442 33282 ft 492 kts 79°
2026-05-06 17:15 42.56595 -64.25327 33295 ft 492 kts 79°
2026-05-06 17:15 42.57703 -64.16169 33295 ft 492 kts 79°
2026-05-06 17:16 42.58806 -64.06978 33297 ft 493 kts 79°
2026-05-06 17:16 42.59897 -63.97832 33295 ft 491 kts 79°
2026-05-06 17:17 42.60981 -63.88676 33297 ft 492 kts 79°
2026-05-06 17:17 42.62061 -63.79493 33298 ft 492 kts 79°
2026-05-06 17:18 42.63133 -63.70314 33303 ft 491 kts 79°
2026-05-06 17:18 42.64196 -63.61148 33304 ft 491 kts 79°
2026-05-06 17:19 42.65071 -63.53542 33307 ft 491 kts 79°
2026-05-06 17:19 42.66293 -63.42856 33306 ft 490 kts 79°
2026-05-06 17:20 42.67159 -63.35228 33314 ft 491 kts 79°
2026-05-06 17:20 42.68194 -63.26035 33312 ft 490 kts 79°
2026-05-06 17:21 42.69213 -63.16932 33317 ft 489 kts 80°
2026-05-06 17:21 42.70231 -63.07762 33316 ft 491 kts 80°
2026-05-06 17:22 42.71244 -62.98575 33322 ft 490 kts 80°
2026-05-06 17:22 42.72242 -62.89444 33318 ft 490 kts 80°
2026-05-06 17:23 42.73240 -62.80249 33323 ft 491 kts 80°
2026-05-06 17:23 42.74226 -62.71104 33315 ft 490 kts 80°
2026-05-06 17:24 42.75206 -62.61934 33321 ft 490 kts 80°
2026-05-06 17:24 42.76184 -62.52715 33326 ft 492 kts 80°
2026-05-06 17:25 42.77146 -62.43564 33332 ft 490 kts 80°
2026-05-06 17:25 42.78108 -62.34352 33335 ft 491 kts 81°
2026-05-06 17:26 42.79061 -62.25150 33335 ft 492 kts 81°
2026-05-06 17:26 42.80004 -62.15965 33323 ft 491 kts 81°
2026-05-06 17:27 42.80945 -62.06735 33347 ft 492 kts 81°
2026-05-06 17:27 42.81874 -61.97544 33341 ft 492 kts 81°
2026-05-06 17:28 42.82798 -61.88319 33332 ft 491 kts 81°
2026-05-06 17:28 42.83718 -61.79070 33346 ft 492 kts 81°
2026-05-06 17:29 42.84625 -61.69860 33349 ft 492 kts 81°
2026-05-06 17:29 42.85530 -61.60602 33347 ft 491 kts 81°
2026-05-06 17:30 42.86427 -61.51341 33358 ft 493 kts 81°
2026-05-06 17:30 42.87313 -61.42121 33357 ft 493 kts 81°
2026-05-06 17:31 42.88195 -61.32857 33363 ft 493 kts 81°
2026-05-06 17:31 42.89072 -61.23572 33359 ft 494 kts 81°
2026-05-06 17:32 42.89942 -61.14268 33368 ft 494 kts 81°
2026-05-06 17:32 42.90803 -61.04980 33364 ft 493 kts 81°
2026-05-06 17:33 42.91655 -60.95712 33371 ft 495 kts 81°
2026-05-06 17:33 42.92504 -60.86382 33371 ft 494 kts 81°
2026-05-06 17:34 42.93346 -60.77061 33377 ft 494 kts 81°
2026-05-06 17:34 42.94174 -60.67793 33376 ft 495 kts 81°
2026-05-06 17:35 42.95001 -60.58447 33382 ft 494 kts 81°
2026-05-06 17:35 42.95820 -60.49124 33386 ft 494 kts 81°
2026-05-06 17:36 42.97030 -60.35189 33274 ft 492 kts 82°
2026-05-06 17:36 42.97806 -60.25999 33353 ft 476 kts 82°
2026-05-06 17:37 42.98568 -60.17139 33379 ft 462 kts 81°
2026-05-06 17:37 42.99287 -60.08577 33386 ft 450 kts 81°
2026-05-06 17:38 43.00011 -60.00292 33387 ft 440 kts 83°
2026-05-06 17:38 43.00336 -59.92024 33407 ft 430 kts 84°
2026-05-06 17:39 43.00685 -59.83990 33406 ft 421 kts 84°
2026-05-06 17:39 43.01009 -59.76059 33411 ft 413 kts 84°
2026-05-06 17:40 43.01326 -59.68288 33407 ft 405 kts 84°
2026-05-06 17:40 43.01630 -59.60709 33407 ft 398 kts 84°
2026-05-06 17:41 43.01926 -59.53201 33414 ft 391 kts 84°
2026-05-06 17:41 43.02212 -59.45822 33411 ft 385 kts 84°
2026-05-06 17:42 43.02487 -59.38626 33418 ft 378 kts 84°
2026-05-06 17:42 43.02754 -59.31499 33415 ft 372 kts 85°
2026-05-06 17:43 43.03013 -59.24480 33415 ft 365 kts 84°
2026-05-06 17:43 43.03261 -59.17639 33306 ft 361 kts 84°
2026-05-06 17:44 43.03386 -59.14193 33133 ft 363 kts 84°
2026-05-06 17:44 43.03509 -59.10722 32995 ft 364 kts 84°
2026-05-06 17:44 43.03747 -59.03887 32930 ft 359 kts 85°
2026-05-06 17:45 43.03984 -58.97058 32679 ft 360 kts 84°
2026-05-06 17:45 43.04099 -58.93672 32540 ft 361 kts 85°
2026-05-06 17:45 43.04214 -58.90251 32478 ft 359 kts 85°
2026-05-06 17:46 43.04440 -58.83457 32390 ft 356 kts 84°
2026-05-06 17:46 43.04552 -58.80081 32248 ft 357 kts 85°
2026-05-06 17:46 43.04664 -58.76653 32121 ft 358 kts 85°
2026-05-06 17:47 43.04879 -58.69917 32042 ft 354 kts 84°
2026-05-06 17:47 43.05092 -58.63179 31840 ft 355 kts 85°
2026-05-06 17:48 43.05197 -58.59804 31738 ft 355 kts 85°
2026-05-06 17:48 43.05300 -58.56430 31683 ft 354 kts 85°
2026-05-06 17:48 43.05504 -58.49731 31573 ft 352 kts 85°
2026-05-06 17:49 43.05603 -58.46424 31465 ft 353 kts 85°
2026-05-06 17:49 43.05702 -58.43070 31373 ft 353 kts 85°
2026-05-06 17:49 43.05897 -58.36380 31280 ft 350 kts 85°
2026-05-06 17:50 43.06088 -58.29718 31103 ft 351 kts 85°
2026-05-06 17:50 43.06273 -58.23099 30980 ft 349 kts 85°
2026-05-06 17:51 43.06456 -58.16463 30862 ft 348 kts 85°
2026-05-06 17:51 43.06634 -58.09826 30705 ft 348 kts 85°
2026-05-06 17:52 43.06806 -58.03266 30611 ft 346 kts 85°
2026-05-06 17:52 43.06975 -57.96672 30468 ft 346 kts 85°
2026-05-06 17:53 43.07186 -57.90088 30309 ft 345 kts 82°
2026-05-06 17:53 43.07409 -57.86859 30191 ft 345 kts 81°
2026-05-06 17:53 43.07700 -57.83594 30065 ft 344 kts 76°
2026-05-06 17:54 43.08189 -57.80374 29942 ft 344 kts 73°
2026-05-06 17:54 43.08713 -57.77177 29880 ft 343 kts 74°
2026-05-06 17:54 43.09672 -57.70830 29717 ft 341 kts 75°
2026-05-06 17:55 43.10160 -57.67657 29606 ft 341 kts 75°
2026-05-06 17:55 43.10650 -57.64466 29513 ft 341 kts 75°
2026-05-06 17:55 43.11606 -57.58161 29374 ft 339 kts 75°
2026-05-06 17:56 43.12566 -57.51828 29185 ft 339 kts 75°
2026-05-06 17:56 43.13517 -57.45516 29038 ft 338 kts 75°
2026-05-06 17:57 43.14464 -57.39217 28879 ft 337 kts 75°
2026-05-06 17:57 43.15400 -57.32959 28713 ft 337 kts 75°
2026-05-06 17:58 43.16330 -57.26721 28598 ft 335 kts 75°
2026-05-06 17:58 43.17269 -57.20398 28416 ft 336 kts 75°
2026-05-06 17:59 43.18189 -57.14169 28320 ft 334 kts 75°
2026-05-06 17:59 43.19112 -57.07905 28180 ft 334 kts 75°
2026-05-06 18:00 43.20028 -57.01659 28048 ft 334 kts 75°
2026-05-06 18:00 43.20933 -56.95463 27945 ft 333 kts 75°
2026-05-06 18:01 43.21387 -56.92350 27871 ft 333 kts 75°
2026-05-06 18:01 43.21840 -56.89230 27814 ft 333 kts 75°
2026-05-06 18:01 43.22287 -56.86152 27763 ft 332 kts 76°
2026-05-06 18:01 43.22738 -56.83034 27711 ft 331 kts 76°
2026-05-06 18:02 43.23187 -56.79926 27660 ft 331 kts 76°
2026-05-06 18:02 43.23635 -56.76821 27587 ft 332 kts 76°
2026-05-06 18:02 43.24082 -56.73717 27532 ft 331 kts 76°
2026-05-06 18:02 43.24521 -56.70657 27498 ft 331 kts 76°
2026-05-06 18:03 43.24965 -56.67558 27443 ft 330 kts 76°
2026-05-06 18:03 43.25407 -56.64469 27390 ft 330 kts 76°
2026-05-06 18:03 43.25853 -56.61348 27320 ft 331 kts 76°
2026-05-06 18:03 43.26289 -56.58287 27272 ft 330 kts 76°
2026-05-06 18:04 43.26729 -56.55189 27234 ft 330 kts 76°
2026-05-06 18:04 43.27167 -56.52096 27189 ft 329 kts 76°
2026-05-06 18:04 43.27606 -56.49000 27140 ft 329 kts 76°
2026-05-06 18:04 43.28039 -56.45936 27083 ft 329 kts 76°
2026-05-06 18:05 43.28469 -56.42883 27053 ft 329 kts 76°
2026-05-06 18:05 43.28904 -56.39792 27011 ft 329 kts 76°
2026-05-06 18:05 43.29337 -56.36708 26963 ft 329 kts 76°
2026-05-06 18:05 43.29771 -56.33616 26916 ft 329 kts 76°
2026-05-06 18:06 43.30201 -56.30539 26881 ft 328 kts 76°
2026-05-06 18:06 43.30632 -56.27450 26837 ft 328 kts 76°
2026-05-06 18:06 43.31056 -56.24408 26792 ft 328 kts 76°
2026-05-06 18:06 43.31483 -56.21334 26744 ft 328 kts 76°
2026-05-06 18:07 43.31910 -56.18255 26698 ft 328 kts 76°
2026-05-06 18:07 43.32332 -56.15204 26669 ft 327 kts 76°
2026-05-06 18:07 43.32756 -56.12132 26639 ft 327 kts 76°
2026-05-06 18:07 43.33180 -56.09062 26601 ft 327 kts 76°
2026-05-06 18:08 43.33603 -56.05984 26545 ft 327 kts 76°
2026-05-06 18:08 43.33884 -56.03942 26515 ft 327 kts 76°
2026-05-06 18:08 43.34443 -55.99865 26476 ft 327 kts 76°
2026-05-06 18:08 43.34720 -55.97833 26459 ft 326 kts 76°
2026-05-06 18:09 43.35139 -55.94761 26417 ft 326 kts 76°
2026-05-06 18:09 43.35694 -55.90695 26359 ft 326 kts 76°
2026-05-06 18:09 43.35969 -55.88667 26346 ft 326 kts 76°
2026-05-06 18:09 43.36391 -55.85557 26310 ft 326 kts 76°
2026-05-06 18:10 43.36800 -55.82533 26281 ft 326 kts 77°
2026-05-06 18:10 43.37215 -55.79462 26234 ft 326 kts 77°
2026-05-06 18:10 43.37628 -55.76399 26202 ft 326 kts 77°
2026-05-06 18:10 43.38040 -55.73337 26184 ft 325 kts 77°
2026-05-06 18:11 43.38450 -55.70276 26141 ft 325 kts 77°
2026-05-06 18:11 43.38856 -55.67249 26104 ft 325 kts 77°
2026-05-06 18:11 43.39265 -55.64185 26076 ft 325 kts 77°
2026-05-06 18:11 43.39673 -55.61128 26051 ft 324 kts 77°
2026-05-06 18:12 43.40080 -55.58074 26031 ft 324 kts 77°
2026-05-06 18:12 43.40486 -55.55016 25985 ft 325 kts 77°
2026-05-06 18:12 43.40893 -55.51948 25956 ft 325 kts 77°
2026-05-06 18:12 43.41292 -55.48929 25935 ft 324 kts 77°
2026-05-06 18:13 43.41695 -55.45875 25906 ft 324 kts 77°
2026-05-06 18:13 43.42097 -55.42820 25874 ft 324 kts 77°
2026-05-06 18:13 43.42498 -55.39765 25841 ft 324 kts 77°
2026-05-06 18:13 43.42899 -55.36705 25808 ft 324 kts 77°
2026-05-06 18:14 43.43294 -55.33688 25793 ft 323 kts 77°
2026-05-06 18:14 43.43692 -55.30637 25776 ft 323 kts 77°
2026-05-06 18:14 43.44089 -55.27593 25740 ft 323 kts 77°
2026-05-06 18:14 43.44486 -55.24540 25699 ft 324 kts 77°
2026-05-06 18:15 43.44784 -55.22241 25691 ft 323 kts 77°
2026-05-06 18:15 43.45081 -55.19951 25682 ft 323 kts 77°
2026-05-06 18:34 43.45184 -55.19159 25676 ft 323 kts 77°
2026-05-06 18:35 43.45575 -55.16117 25671 ft 322 kts 77°
2026-05-06 18:35 43.45967 -55.13084 25649 ft 321 kts 77°
2026-05-06 18:35 43.46358 -55.10055 25615 ft 322 kts 77°
2026-05-06 18:35 43.46745 -55.07034 25576 ft 322 kts 77°
2026-05-06 18:36 43.47136 -55.03970 25564 ft 322 kts 77°
2026-05-06 18:36 43.47867 -54.98254 25542 ft 321 kts 77°
2026-05-06 18:36 43.50931 -54.73993 25337 ft 321 kts 78°
2026-05-06 18:36 43.53930 -54.49823 25199 ft 320 kts 79°
2026-05-06 18:37 43.56896 -54.25355 24891 ft 322 kts 79°
2026-05-06 18:37 43.58832 -54.09193 24663 ft 324 kts 79°
2026-05-06 18:37 43.62650 -53.76770 24424 ft 320 kts 80°
2026-05-06 18:37 43.65414 -53.52927 24262 ft 318 kts 79°
2026-05-06 18:38 43.68123 -53.28911 24086 ft 315 kts 81°
2026-05-06 18:38 43.70756 -53.05025 23936 ft 313 kts 79°
2026-05-06 18:38 43.73354 -52.81327 23696 ft 312 kts 82°
2026-05-06 18:38 43.75859 -52.57496 23568 ft 311 kts 80°
2026-05-06 18:39 43.78357 -52.33846 23366 ft 310 kts 83°
2026-05-06 18:39 43.79929 -52.18478 23285 ft 309 kts 83°
2026-05-06 18:39 43.80191 -52.15522 23283 ft 309 kts 81°
2026-05-06 18:40 43.80817 -52.09638 23263 ft 308 kts 81°
2026-05-06 18:40 43.81256 -52.05224 23203 ft 309 kts 82°
2026-05-06 18:40 43.82446 -51.93236 23762 ft 334 kts 83°
2026-05-06 18:40 43.83819 -51.79423 23971 ft 386 kts 83°
2026-05-06 18:41 43.85317 -51.64089 25792 ft 391 kts 83°
2026-05-06 18:41 43.86771 -51.48980 28833 ft 407 kts 83°
2026-05-06 18:41 43.88289 -51.32974 31184 ft 431 kts 83°
2026-05-06 18:41 43.89872 -51.15991 33033 ft 457 kts 83°
2026-05-06 18:42 43.91474 -50.98536 33222 ft 462 kts 83°
2026-05-06 18:42 43.93073 -50.80799 33331 ft 459 kts 83°
2026-05-06 18:42 43.94616 -50.63377 33476 ft 462 kts 84°
2026-05-06 18:42 43.96605 -50.40433 35045 ft 483 kts 84°
2026-05-06 18:43 43.98165 -50.22079 35163 ft 479 kts 84°
2026-05-06 18:43 43.99701 -50.03633 35265 ft 478 kts 84°
2026-05-06 18:43 44.02110 -49.85413 35378 ft 479 kts 78°
2026-05-06 18:44 44.07257 -49.49458 35555 ft 474 kts 78°
2026-05-06 18:44 44.12285 -49.13415 35576 ft 472 kts 78°
2026-05-06 18:45 44.17134 -48.77797 35578 ft 469 kts 78°
2026-05-06 18:45 44.21865 -48.42186 35575 ft 465 kts 79°
2026-05-06 18:46 44.26454 -48.06754 35576 ft 462 kts 79°
2026-05-06 18:46 44.30902 -47.71517 35574 ft 459 kts 79°
2026-05-06 18:47 44.35203 -47.36554 35575 ft 458 kts 79°
2026-05-06 18:47 44.39405 -47.01464 35567 ft 455 kts 79°
2026-05-06 18:48 44.43453 -46.66733 35563 ft 452 kts 79°
2026-05-06 18:48 44.47393 -46.31977 35566 ft 450 kts 80°
2026-05-06 18:49 44.51206 -45.97374 35562 ft 449 kts 80°
2026-05-06 18:49 44.54886 -45.62995 35554 ft 447 kts 80°
2026-05-06 18:50 44.58474 -45.28460 35550 ft 445 kts 80°
2026-05-06 18:50 44.61904 -44.94431 35543 ft 444 kts 79°
2026-05-06 18:51 44.65271 -44.59962 35545 ft 444 kts 79°
2026-05-06 18:51 44.68517 -44.25632 35536 ft 442 kts 79°
2026-05-06 18:52 44.71652 -43.91367 35531 ft 440 kts 78°
2026-05-06 18:52 44.74664 -43.57299 35524 ft 440 kts 78°
2026-05-06 18:53 44.77597 -43.22919 35519 ft 441 kts 78°
2026-05-06 18:53 44.80405 -42.88772 35503 ft 441 kts 78°
2026-05-06 18:54 44.83131 -42.54352 35497 ft 442 kts 78°
2026-05-06 18:54 44.85738 -42.20096 35489 ft 442 kts 78°
2026-05-06 18:55 44.88238 -41.85915 35479 ft 432 kts 77°
2026-05-06 18:55 44.90196 -41.58020 35477 ft 427 kts 76°
2026-05-06 18:56 44.92793 -41.19443 35462 ft 418 kts 76°
2026-05-06 18:56 44.94536 -40.92404 35462 ft 413 kts 76°
2026-05-06 18:57 44.96527 -40.60178 35449 ft 408 kts 76°
2026-05-06 18:57 44.98405 -40.28337 35450 ft 404 kts 75°
2026-05-06 18:58 45.00135 -39.97083 35431 ft 401 kts 77°
2026-05-06 18:58 45.01440 -39.65897 35433 ft 395 kts 76°
2026-05-06 18:59 45.02507 -39.38962 35420 ft 386 kts 75°
2026-05-06 18:59 45.03621 -39.08878 35414 ft 379 kts 75°
2026-05-06 18:59 45.04143 -38.94056 35297 ft 377 kts 75°
2026-05-06 19:00 45.04637 -38.79399 35143 ft 376 kts 75°
2026-05-06 19:00 45.05119 -38.64545 34951 ft 376 kts 75°
2026-05-06 19:00 45.05582 -38.49709 34727 ft 376 kts 75°
2026-05-06 19:00 45.06026 -38.34901 34508 ft 377 kts 75°
2026-05-06 19:01 45.06444 -38.20305 34329 ft 376 kts 74°
2026-05-06 19:01 45.06856 -38.05470 33867 ft 383 kts 75°
2026-05-06 19:01 45.07252 -37.90258 33362 ft 390 kts 74°
2026-05-06 19:01 45.07637 -37.74732 33959 ft 425 kts 77°
2026-05-06 19:02 45.07824 -37.66285 34672 ft 431 kts 78°
2026-05-06 19:02 45.08018 -37.57752 35172 ft 430 kts 78°
2026-05-06 19:02 45.08212 -37.49282 35352 ft 438 kts 79°
2026-05-06 19:03 45.08608 -37.30281 35360 ft 440 kts 79°
2026-05-06 19:03 45.08944 -37.12831 35368 ft 445 kts 79°
2026-05-06 19:04 45.09257 -36.95338 35367 ft 444 kts 79°
2026-05-06 19:04 45.09536 -36.77907 35356 ft 443 kts 79°
2026-05-06 19:05 45.09866 -36.55480 35353 ft 445 kts 80°
2026-05-06 19:05 45.10091 -36.38063 35353 ft 445 kts 80°
2026-05-06 19:06 45.10288 -36.20522 35348 ft 444 kts 80°
2026-05-06 19:06 45.10457 -36.03159 35342 ft 445 kts 81°
2026-05-06 19:07 45.10690 -35.72828 35336 ft 445 kts 81°
2026-05-06 19:07 45.10880 -35.31746 35338 ft 445 kts 81°
2026-05-06 19:08 45.10916 -34.86823 35317 ft 449 kts 82°
2026-05-06 19:08 45.10734 -34.35961 35321 ft 444 kts 83°
2026-05-06 19:09 45.10473 -33.98502 35287 ft 451 kts 84°
2026-05-06 19:09 45.10105 -33.63200 35278 ft 453 kts 85°
2026-05-06 19:10 45.09624 -33.27573 35265 ft 454 kts 86°
2026-05-06 19:10 45.09031 -32.91868 35250 ft 453 kts 86°
2026-05-06 19:11 45.08328 -32.56217 35246 ft 453 kts 87°
2026-05-06 19:11 45.07514 -32.20582 35239 ft 453 kts 88°
2026-05-06 19:12 45.06590 -31.84996 35231 ft 453 kts 89°
2026-05-06 19:12 45.05557 -31.49444 35220 ft 453 kts 90°
2026-05-06 19:13 45.04412 -31.13875 35214 ft 451 kts 91°
2026-05-06 19:13 45.03774 -30.95423 35207 ft 453 kts 91°
2026-05-06 19:14 45.03457 -30.86551 35207 ft 451 kts 92°
2026-05-06 19:14 45.03261 -30.81171 35204 ft 452 kts 92°
2026-05-06 19:16 45.03005 -30.74240 35205 ft 453 kts 92°
2026-05-06 19:16 45.02671 -30.65348 35204 ft 452 kts 92°
2026-05-06 19:17 45.02453 -30.59656 35198 ft 451 kts 92°
2026-05-06 19:18 45.02361 -30.57259 35195 ft 451 kts 92°
2026-05-06 19:19 45.02015 -30.48405 35197 ft 452 kts 92°
2026-05-06 19:19 45.01660 -30.39529 35196 ft 453 kts 93°
2026-05-06 19:20 45.01300 -30.30661 35192 ft 451 kts 93°
2026-05-06 19:20 45.00864 -30.20150 35196 ft 452 kts 93°
2026-05-06 19:21 45.00289 -30.06647 35188 ft 452 kts 94°
2026-05-06 19:21 44.99950 -29.97787 35182 ft 451 kts 90°
2026-05-06 19:22 44.99927 -29.88973 35181 ft 453 kts 91°
2026-05-06 19:22 44.99695 -29.60814 35174 ft 455 kts 92°
2026-05-06 19:23 44.99298 -29.24940 35164 ft 458 kts 92°
2026-05-06 19:23 44.98790 -28.89169 35147 ft 458 kts 93°
2026-05-06 19:24 44.98166 -28.53149 35137 ft 457 kts 94°
2026-05-06 19:24 44.97427 -28.17046 35130 ft 458 kts 94°
2026-05-06 19:25 44.96575 -27.81012 35120 ft 460 kts 95°
2026-05-06 19:25 44.95615 -27.45139 35107 ft 460 kts 95°
2026-05-06 19:26 44.94538 -27.09150 35107 ft 459 kts 95°
2026-05-06 19:26 44.93343 -26.73050 35108 ft 458 kts 96°
2026-05-06 19:27 44.92051 -26.37385 35121 ft 457 kts 96°
2026-05-06 19:27 44.90633 -26.01348 35126 ft 458 kts 96°
2026-05-06 19:28 44.89109 -25.65527 35140 ft 458 kts 96°
2026-05-06 19:28 44.87463 -25.29504 35150 ft 459 kts 96°
2026-05-06 19:29 44.85715 -24.93728 35161 ft 461 kts 96°
2026-05-06 19:29 44.83839 -24.57645 35168 ft 461 kts 97°
2026-05-06 19:30 44.81861 -24.21809 35170 ft 461 kts 96°
2026-05-06 19:30 44.79756 -23.85745 35168 ft 460 kts 97°
2026-05-06 19:31 44.77559 -23.50046 35181 ft 459 kts 97°
2026-05-06 19:31 44.74037 -22.96288 35190 ft 458 kts 97°
2026-05-06 19:32 44.71571 -22.60794 35195 ft 458 kts 97°
2026-05-06 19:32 44.68978 -22.25098 35195 ft 458 kts 97°
2026-05-06 19:33 44.66295 -21.89706 35200 ft 458 kts 97°
2026-05-06 19:33 44.63480 -21.54070 35206 ft 458 kts 97°
2026-05-06 19:34 44.60546 -21.18376 35207 ft 461 kts 97°
2026-05-06 19:34 44.57488 -20.82558 35210 ft 462 kts 97°
2026-05-06 19:35 44.54333 -20.46934 35212 ft 462 kts 97°
2026-05-06 19:35 44.51039 -20.11060 35218 ft 463 kts 97°
2026-05-06 19:36 44.47251 -19.75305 35219 ft 464 kts 99°
2026-05-06 19:36 44.43193 -19.39759 35225 ft 465 kts 99°
2026-05-06 19:37 44.39017 -19.04180 35223 ft 463 kts 98°
2026-05-06 19:37 44.35462 -18.74656 35224 ft 461 kts 98°
2026-05-06 19:38 44.30372 -18.33490 35228 ft 460 kts 98°
2026-05-06 19:38 44.25939 -17.98636 35228 ft 458 kts 98°
2026-05-06 19:39 44.21365 -17.63560 35225 ft 458 kts 97°
2026-05-06 19:39 44.16682 -17.28532 35237 ft 459 kts 97°
2026-05-06 19:40 44.14317 -17.11154 36335 ft 470 kts 98°
2026-05-06 19:40 44.11821 -16.93039 37172 ft 480 kts 98°
2026-05-06 19:40 44.06678 -16.56402 37222 ft 481 kts 98°
2026-05-06 19:41 43.99833 -16.08964 37223 ft 475 kts 98°
2026-05-06 19:41 43.94513 -15.73080 37216 ft 472 kts 98°
2026-05-06 19:42 43.89125 -15.37545 37224 ft 469 kts 98°
2026-05-06 19:42 43.83650 -15.02227 37217 ft 468 kts 99°
2026-05-06 19:43 43.78080 -14.67052 37199 ft 466 kts 99°
2026-05-06 19:43 43.72439 -14.32172 37200 ft 465 kts 99°
2026-05-06 19:44 43.66674 -13.97252 37195 ft 464 kts 99°
2026-05-06 19:44 43.60863 -13.62748 37192 ft 462 kts 100°
2026-05-06 19:45 43.54924 -13.28166 37191 ft 462 kts 100°
2026-05-06 19:45 43.49352 -12.93738 37197 ft 457 kts 95°
2026-05-06 19:46 43.46290 -12.64959 37179 ft 456 kts 96°
2026-05-06 19:46 43.41907 -12.24869 37173 ft 455 kts 96°
2026-05-06 19:47 43.38695 -11.96301 37169 ft 454 kts 97°
2026-05-06 19:47 43.34741 -11.62013 37162 ft 453 kts 98°
2026-05-06 19:48 43.30695 -11.27853 37158 ft 452 kts 98°
2026-05-06 19:48 43.26582 -10.94023 37146 ft 450 kts 99°
2026-05-06 19:49 43.22362 -10.60176 37144 ft 449 kts 99°
2026-05-06 19:49 43.18420 -10.29298 37139 ft 449 kts 100°
2026-05-06 19:50 43.17075 -10.18927 37141 ft 451 kts 100°
2026-05-06 19:50 43.15972 -10.10471 37134 ft 450 kts 100°
2026-05-06 19:51 43.14866 -10.02035 37135 ft 449 kts 100°
2026-05-06 19:51 43.13758 -9.93646 37131 ft 450 kts 100°
2026-05-06 19:52 43.12636 -9.85192 37132 ft 450 kts 101°
2026-05-06 19:52 43.11517 -9.76819 37128 ft 449 kts 101°
2026-05-06 19:53 43.10383 -9.68380 37129 ft 450 kts 101°
2026-05-06 19:53 43.09249 -9.59991 37128 ft 450 kts 101°
2026-05-06 19:54 43.08103 -9.51563 37123 ft 449 kts 101°
2026-05-06 19:54 43.06959 -9.43187 37124 ft 450 kts 101°
2026-05-06 19:55 43.05799 -9.34755 37124 ft 450 kts 101°
2026-05-06 19:55 43.04642 -9.26390 37121 ft 449 kts 101°
2026-05-06 19:56 43.03474 -9.17990 37124 ft 450 kts 101°
2026-05-06 19:56 43.02299 -9.09587 37124 ft 449 kts 101°
2026-05-06 19:57 43.01121 -9.01204 37118 ft 449 kts 102°
2026-05-06 19:57 43.00134 -8.94232 37118 ft 449 kts 102°
2026-05-06 19:58 42.98896 -8.85515 37114 ft 449 kts 102°
2026-05-06 19:58 42.97698 -8.77128 37116 ft 449 kts 102°
2026-05-06 19:59 42.96503 -8.68810 37111 ft 447 kts 102°
2026-05-06 19:59 42.95299 -8.60474 37109 ft 447 kts 102°
2026-05-06 20:00 42.94086 -8.52125 37103 ft 449 kts 102°
2026-05-06 20:00 42.92909 -8.43812 37104 ft 448 kts 101°
2026-05-06 20:01 42.92253 -8.35343 37111 ft 448 kts 95°
2026-05-06 20:01 42.91716 -8.26849 37107 ft 450 kts 96°
2026-05-06 20:02 42.91196 -8.18384 37102 ft 449 kts 96°
2026-05-06 20:02 42.90660 -8.09912 37106 ft 448 kts 96°
2026-05-06 20:03 42.90115 -8.01402 37110 ft 449 kts 96°
2026-05-06 20:03 42.89567 -7.92920 37113 ft 450 kts 96°
2026-05-06 20:04 42.89013 -7.84446 37112 ft 449 kts 96°
2026-05-06 20:04 42.88451 -7.75956 37111 ft 449 kts 96°
2026-05-06 20:05 42.87883 -7.67470 37115 ft 449 kts 96°
2026-05-06 20:05 42.87310 -7.59004 37111 ft 450 kts 96°
2026-05-06 20:06 42.86728 -7.50498 37102 ft 449 kts 96°
2026-05-06 20:06 42.86146 -7.42082 37106 ft 449 kts 97°
2026-05-06 20:07 42.85552 -7.33583 37107 ft 450 kts 97°
2026-05-06 20:07 42.84954 -7.25124 37104 ft 450 kts 97°
2026-05-06 20:08 42.84349 -7.16651 37103 ft 449 kts 97°
2026-05-06 20:08 42.83738 -7.08185 37102 ft 450 kts 97°
2026-05-06 20:09 42.83117 -6.99677 37112 ft 451 kts 97°
2026-05-06 20:09 42.82493 -6.91205 37104 ft 451 kts 97°
2026-05-06 20:10 42.81861 -6.82710 37096 ft 450 kts 97°
2026-05-06 20:10 42.81220 -6.74191 37097 ft 452 kts 97°
2026-05-06 20:11 42.80577 -6.65731 37091 ft 451 kts 97°
2026-05-06 20:11 42.79925 -6.57219 37088 ft 450 kts 97°
2026-05-06 20:12 42.79265 -6.48709 37100 ft 452 kts 97°
2026-05-06 20:12 42.78603 -6.40237 37087 ft 452 kts 97°
2026-05-06 20:13 42.77931 -6.31739 37086 ft 451 kts 97°
2026-05-06 20:13 42.77254 -6.23238 37098 ft 452 kts 97°
2026-05-06 20:14 42.76550 -6.14499 37089 ft 452 kts 97°
2026-05-06 20:14 42.75160 -5.97470 37075 ft 452 kts 98°
2026-05-06 20:15 42.73742 -5.80417 37065 ft 452 kts 98°
2026-05-06 20:15 42.72303 -5.63422 37056 ft 453 kts 98°
2026-05-06 20:16 42.70845 -5.46500 37063 ft 452 kts 98°
2026-05-06 20:16 42.69351 -5.29496 37077 ft 454 kts 98°
2026-05-06 20:17 42.67830 -5.12467 37006 ft 453 kts 98°
2026-05-06 20:17 42.66297 -4.95574 36991 ft 452 kts 98°
2026-05-06 20:18 42.64738 -4.78649 36986 ft 451 kts 98°
2026-05-06 20:18 42.63149 -4.61721 36993 ft 453 kts 98°
2026-05-06 20:19 42.61532 -4.44765 36997 ft 452 kts 98°
2026-05-06 20:19 42.59888 -4.27803 37005 ft 454 kts 99°
2026-05-06 20:20 42.58219 -4.10851 37002 ft 453 kts 99°
2026-05-06 20:20 42.56528 -3.93961 37007 ft 454 kts 99°
2026-05-06 20:21 42.54804 -3.77004 37000 ft 454 kts 99°
2026-05-06 20:21 42.53049 -3.60008 36991 ft 454 kts 99°
2026-05-06 20:22 42.51265 -3.42994 37004 ft 456 kts 99°
2026-05-06 20:22 42.51462 -3.10468 37046 ft 461 kts 76°
2026-05-06 20:23 42.59404 -2.61252 37018 ft 461 kts 81°
2026-05-06 20:23 42.61088 -2.44233 37018 ft 458 kts 94°
2026-05-06 20:23 42.57593 -2.27729 37041 ft 454 kts 118°
2026-05-06 20:24 42.47031 -1.96587 37009 ft 454 kts 117°
2026-05-06 20:24 42.36431 -1.65639 36998 ft 457 kts 117°
2026-05-06 20:25 42.22720 -1.26113 36991 ft 457 kts 118°
2026-05-06 20:25 42.08444 -0.85547 36962 ft 458 kts 118°
2026-05-06 20:26 41.97397 -0.54554 36955 ft 459 kts 119°
2026-05-06 20:26 41.87602 -0.22876 36960 ft 467 kts 110°
2026-05-06 20:27 41.81303 0.04236 36936 ft 467 kts 110°
2026-05-06 20:27 41.77657 0.19717 28133 ft 409 kts 110°
2026-05-06 20:27 41.76651 0.24023 24720 ft 380 kts 109°
2026-05-06 20:28 41.75092 0.31037 20889 ft 359 kts 105°
2026-05-06 20:28 41.73420 0.43420 16876 ft 324 kts 99°
2026-05-06 20:28 41.72119 0.54167 16030 ft 256 kts 99°
2026-05-06 20:28 41.70930 0.63944 13927 ft 255 kts 99°
2026-05-06 20:29 41.69763 0.73464 11895 ft 251 kts 99°
2026-05-06 20:29 41.68885 0.80588 10513 ft 293 kts 99°
2026-05-06 20:29 41.68539 0.83339 10378 ft 301 kts 99°
2026-05-06 20:29 41.68208 0.86086 10140 ft 296 kts 99°
2026-05-06 20:30 41.67875 0.88779 10026 ft 293 kts 99°
2026-05-06 20:30 41.67193 0.94172 9974 ft 294 kts 99°
2026-05-06 20:30 41.66859 0.96868 9970 ft 294 kts 99°
2026-05-06 20:31 41.65494 1.07743 9960 ft 294 kts 99°
2026-05-06 20:31 41.64132 1.18506 9966 ft 293 kts 99°
2026-05-06 20:31 41.62772 1.29177 9968 ft 292 kts 99°
2026-05-06 20:31 41.61415 1.39750 9973 ft 292 kts 99°
2026-05-06 20:32 41.60048 1.50307 9968 ft 289 kts 100°
2026-05-06 20:32 41.58716 1.60530 9965 ft 289 kts 100°
2026-05-06 20:32 41.57321 1.71152 9979 ft 292 kts 100°
2026-05-06 20:32 41.56055 1.80728 9978 ft 289 kts 100°
2026-05-06 20:33 41.55715 1.83294 9976 ft 270 kts 100°
2026-05-06 20:33 41.55418 1.85721 9973 ft 264 kts 91°
2026-05-06 20:33 41.55757 1.88115 10014 ft 266 kts 62°
2026-05-06 20:33 41.56666 1.90266 10051 ft 266 kts 57°
2026-05-06 20:34 41.57631 1.92356 10009 ft 264 kts 57°
2026-05-06 20:34 41.58586 1.94450 10009 ft 265 kts 57°
2026-05-06 20:34 41.59533 1.96559 10004 ft 264 kts 58°
2026-05-06 20:34 41.60469 1.98665 9997 ft 264 kts 58°
2026-05-06 20:35 41.61353 2.00802 10004 ft 262 kts 63°
2026-05-06 20:35 41.62114 2.03016 10043 ft 263 kts 65°
2026-05-06 20:35 41.62606 2.04506 10043 ft 262 kts 65°
2026-05-06 20:35 41.63360 2.06734 10015 ft 262 kts 64°
2026-05-06 20:36 41.64132 2.08953 9997 ft 264 kts 64°
2026-05-06 20:36 41.64897 2.11137 9985 ft 262 kts 64°
2026-05-06 20:36 41.65663 2.13348 9977 ft 262 kts 64°
2026-05-06 20:36 41.66428 2.15567 9970 ft 263 kts 64°
2026-05-06 20:37 41.67190 2.17784 9977 ft 263 kts 64°
2026-05-06 20:37 41.67956 2.20001 9974 ft 262 kts 64°
2026-05-06 20:37 41.68721 2.22216 9977 ft 263 kts 64°
2026-05-06 20:37 41.69488 2.24444 9865 ft 266 kts 64°
2026-05-06 20:38 41.70258 2.26681 9363 ft 263 kts 64°
2026-05-06 20:38 41.71021 2.28903 8481 ft 264 kts 64°
2026-05-06 20:38 41.71793 2.31143 7390 ft 266 kts 64°
2026-05-06 20:38 41.72365 2.33516 6539 ft 270 kts 86°
2026-05-06 20:39 41.72049 2.35934 6259 ft 266 kts 116°
2026-05-06 20:39 41.70912 2.37833 6115 ft 261 kts 146°
2026-05-06 20:39 41.69259 2.38726 6071 ft 259 kts 175°
2026-05-06 20:39 41.67474 2.38536 6048 ft 258 kts 189°
2026-05-06 20:40 41.65984 2.38689 5992 ft 261 kts 165°
2026-05-06 20:40 41.64581 2.39409 6004 ft 261 kts 158°
2026-05-06 20:40 41.62923 2.40398 6008 ft 263 kts 157°
2026-05-06 20:40 41.61252 2.41419 6001 ft 262 kts 157°
2026-05-06 20:41 41.59592 2.42426 5998 ft 263 kts 158°
2026-05-06 20:41 41.57898 2.43398 5791 ft 265 kts 160°
2026-05-06 20:41 41.56170 2.44161 5288 ft 257 kts 165°
2026-05-06 20:41 41.54478 2.44826 4527 ft 249 kts 165°
2026-05-06 20:42 41.52847 2.45491 3617 ft 241 kts 164°
2026-05-06 20:42 41.52186 2.45705 3235 ft 243 kts 172°
2026-05-06 20:42 41.50896 2.45843 2836 ft 256 kts 175°
2026-05-06 20:43 41.49145 2.46112 2533 ft 254 kts 171°
2026-05-06 20:43 41.47434 2.46679 2398 ft 252 kts 164°
2026-05-06 20:43 41.45744 2.47361 2346 ft 254 kts 163°
2026-05-06 20:43 41.43984 2.47551 2307 ft 260 kts 190°
2026-05-06 20:44 41.42659 2.46832 2301 ft 259 kts 213°
2026-05-06 20:44 41.42159 2.46285 2309 ft 261 kts 224°
2026-05-06 20:44 41.41194 2.44285 2294 ft 261 kts 246°
2026-05-06 20:45 41.40575 2.42020 2293 ft 262 kts 251°
2026-05-06 20:45 41.40065 2.39854 2216 ft 208 kts 252°
2026-05-06 20:45 41.39723 2.38307 2215 ft 159 kts 253°
2026-05-06 20:45 41.39404 2.36882 2263 ft 162 kts 252°
2026-05-06 20:46 41.39075 2.35435 2285 ft 164 kts 252°
2026-05-06 20:46 41.38742 2.33994 2287 ft 164 kts 251°
2026-05-06 20:46 41.38371 2.32549 2279 ft 164 kts 248°
2026-05-06 20:46 41.37929 2.31152 2283 ft 164 kts 244°
2026-05-06 20:47 41.37427 2.29791 2294 ft 164 kts 242°
2026-05-06 20:47 41.36903 2.28446 2293 ft 164 kts 241°
2026-05-06 20:47 41.36373 2.27105 2295 ft 164 kts 241°
2026-05-06 20:47 41.35840 2.25761 2285 ft 164 kts 241°
2026-05-06 20:48 41.35314 2.24421 2284 ft 164 kts 242°
2026-05-06 20:48 41.34816 2.23034 2093 ft 166 kts 245°
2026-05-06 20:48 41.34376 2.21662 1840 ft 159 kts 246°
2026-05-06 20:48 41.34270 2.21323 1786 ft 160 kts 246°
2026-05-06 20:49 41.34091 2.20745 1724 ft 161 kts 246°
2026-05-06 20:49 41.33672 2.19372 1550 ft 158 kts 246°
2026-05-06 20:49 41.33228 2.18032 1410 ft 160 kts 243°
2026-05-06 20:49 41.32751 2.16707 1166 ft 159 kts 243°
2026-05-06 20:50 41.32279 2.15383 947 ft 159 kts 245°
2026-05-06 20:50 41.31819 2.14029 677 ft 159 kts 246°
2026-05-06 20:50 41.31367 2.12704 468 ft 150 kts 245°
2026-05-06 20:50 41.30934 2.11452 276 ft 151 kts 246°
2026-05-06 20:51 41.30501 2.10170 49 ft 156 kts 246°
2026-05-06 20:51 41.30103 2.09006 12 ft 110 kts 245°
2026-05-06 20:51 41.29874 2.08333 15 ft 51 kts 244°
2026-05-06 20:51 41.29795 2.08113 12 ft 7 kts 240°
2026-05-06 20:52 41.29746 2.08012 12 ft 15 kts 234°
2026-05-06 20:52 41.29678 2.07912 11 ft 27 kts 220°
2026-05-06 20:52 41.29560 2.07821 11 ft 8 kts 175°
2026-05-06 20:52 41.29535 2.07862 11 ft 8 kts 99°
2026-05-06 20:53 41.29548 2.07930 11 ft 7 kts 66°
2026-05-06 20:53 41.29575 2.08013 11 ft 11 kts 70°
2026-05-06 20:53 41.29571 2.08074 11 ft 4 kts 126°
2026-05-06 20:53 41.29539 2.08137 10 ft 8 kts 95°
2026-05-06 20:54 41.29563 2.08220 10 ft 16 kts 75°
2026-05-06 20:54 41.29500 2.08312 10 ft 35 kts 161°
2026-05-06 20:54 41.29325 2.08407 10 ft 19 kts 154°
2026-05-06 20:54 41.29213 2.08453 11 ft 13 kts 188°
2026-05-06 20:55 41.29137 2.08421 11 ft 12 kts 199°
2026-05-06 20:55 41.29065 2.08381 11 ft 8 kts 220°
2026-05-06 20:55 41.29030 2.08308 11 ft 4 kts 247°
2026-05-06 20:55 41.29001 2.08221 11 ft 14 kts 245°
2026-05-06 20:56 41.28958 2.08097 11 ft 16 kts 245°
2026-05-06 20:56 41.28912 2.07962 11 ft 16 kts 245°
2026-05-06 20:56 41.28872 2.07854 10 ft 3 kts 219°
2026-05-06 20:56 41.28856 2.07851 10 ft 4 kts 175°
2026-05-06 20:57 41.28820 2.07867 11 ft 8 kts 158°
2026-05-06 20:57 41.28779 2.07884 11 ft 2 kts 188°
2026-05-06 20:57 41.28763 2.07860 11 ft 5 kts 253°
2026-05-06 20:57 41.28764 2.07832 11 ft 3 kts 279°
2026-05-06 20:58 41.28768 2.07795 11 ft 5 kts 277°
2026-05-06 20:58 41.28769 2.07779 10 ft 0 kts 277°